Tracking 22879 objects as of 23-Apr-2021
HD Live streaming from Space Station
objects crossing your sky now

LEMUR 2 ANDIS

Track LEMUR 2 ANDIS now!
10-day predictions
LEMUR 2 ANDIS is classified as:


NORAD ID: 42838
Int'l Code: 2017-042P
Perigee: 588.8 km
Apogee: 606.1 km
Inclination: 97.5 °
Period: 96.5 minutes
Semi major axis: 6968 km
RCS: Unknown
Launch date: July 14, 2017
Source: United States (US)
Launch site: TYURATAM MISSILE AND SPACE COMPLEX (TTMTR)
aabbcc
Your satellite tracking list
Your tracking list is empty




NASA's NSSDC Master Catalog

Two Line Element Set (TLE):
1 42838U 17042P   21112.45319704  .00000731  00000-0  76463-4 0  9990
2 42838  97.4837 347.1402 0012410 333.9102  26.1491 14.92441027205469
Source of the keplerian elements: AFSPC